When you browse on this site, cookies collect data to enhance your experience and personalize the content and advertising you see.
Visit our Privacy Policy to learn more. By continuing to use the site, you agree to this use of cookies and data.
  • In Hungary
  • List of Countries
  • For 7 days
  • Water Temperature
  • Satellite Maps
  • Weather Map
  • News
  • Weather Widgets
  • user-avatar
    Login

    Hourly Weather Chiknayakanhalli

    Today, 21 November, Wednesday

    Time Temperature Precipitation Wind Pressure Humidity
    00:00 +21°C° 0 mm 3 mps 691 mmHg 84%
    01:00 +21°C° 0 mm 2 mps 691 mmHg 86%
    02:00 +20°C° 0 mm 2 mps 691 mmHg 88%
    03:00 +20°C° 0 mm 2 mps 690 mmHg 88%
    04:00 +19°C° 0 mm 2 mps 690 mmHg 88%
    05:00 +19°C° 0 mm 2 mps 690 mmHg 88%
    06:00 +20°C° 0 mm 2 mps 691 mmHg 81%
    07:00 +22°C° 0 mm 3 mps 691 mmHg 75%
    08:00 +24°C° 0 mm 3 mps 692 mmHg 68%
    09:00 +25°C° 0 mm 4 mps 692 mmHg 63%
    10:00 +27°C° 0 mm 5 mps 692 mmHg 58%
    11:00 +28°C° 0 mm 5 mps 692 mmHg 53%
    12:00 +29°C° 0 mm 5 mps 691 mmHg 53%
    13:00 +29°C° 0 mm 5 mps 691 mmHg 52%
    14:00 +29°C° 0 mm 6 mps 690 mmHg 51%
    15:00 +28°C° 0 mm 5 mps 690 mmHg 57%
    16:00 +27°C° 0 mm 5 mps 690 mmHg 62%
    17:00 +26°C° 0 mm 4 mps 690 mmHg 67%
    18:00 +25°C° 0 mm 4 mps 690 mmHg 71%
    19:00 +23°C° 0 mm 4 mps 691 mmHg 74%
    20:00 +23°C° 0 mm 4 mps 691 mmHg 77%
    21:00 +22°C° 0 mm 4 mps 691 mmHg 79%
    22:00 +22°C° 0 mm 4 mps 691 mmHg 81%
    23:00 +21°C° 0 mm 4 mps 691 mmHg 83%

    Tomorrow, 22 November, Thursday

    Time Temperature Precipitation Wind Pressure Humidity
    00:00 +21°C° 0 mm 4 mps 691 mmHg 85%
    01:00 +21°C° 0 mm 4 mps 690 mmHg 86%
    02:00 +21°C° 0 mm 3 mps 690 mmHg 88%
    03:00 +21°C° 0 mm 4 mps 690 mmHg 89%
    04:00 +21°C° 0 mm 4 mps 690 mmHg 89%
    05:00 +21°C° 0 mm 4 mps 690 mmHg 90%
    06:00 +21°C° 0.1 mm 5 mps 690 mmHg 89%
    07:00 +21°C° 0.1 mm 5 mps 691 mmHg 89%
    08:00 +22°C° 0.1 mm 5 mps 692 mmHg 89%
    09:00 +22°C° 0.1 mm 6 mps 692 mmHg 87%
    10:00 +22°C° 0.1 mm 6 mps 692 mmHg 85%
    11:00 +23°C° 0.1 mm 6 mps 692 mmHg 83%
    12:00 +23°C° 0.1 mm 6 mps 691 mmHg 81%
    13:00 +23°C° 0.1 mm 6 mps 690 mmHg 80%
    14:00 +24°C° 0.1 mm 6 mps 689 mmHg 79%
    15:00 +23°C° 0.7 mm 6 mps 689 mmHg 82%
    16:00 +22°C° 0.7 mm 6 mps 689 mmHg 85%
    17:00 +22°C° 0.7 mm 6 mps 689 mmHg 88%
    18:00 +22°C° 1 mm 6 mps 690 mmHg 89%
    19:00 +22°C° 1 mm 6 mps 691 mmHg 90%
    20:00 +21°C° 1 mm 7 mps 691 mmHg 90%
    21:00 +21°C° 0.3 mm 6 mps 691 mmHg 91%
    22:00 +21°C° 0.3 mm 6 mps 692 mmHg 91%
    23:00 +21°C° 0.3 mm 5 mps 692 mmHg 91%

    Day after tomorrow, 23 November, Friday

    Time Temperature Precipitation Wind Pressure Humidity
    00:00 +21°C° 0.2 mm 5 mps 691 mmHg 92%
    01:00 +21°C° 0.2 mm 5 mps 691 mmHg 92%
    02:00 +21°C° 0.2 mm 4 mps 691 mmHg 93%
    03:00 +21°C° 0.1 mm 4 mps 691 mmHg 93%
    04:00 +21°C° 0.1 mm 4 mps 691 mmHg 93%
    05:00 +21°C° 0.1 mm 4 mps 691 mmHg 93%
    06:00 +21°C° 0 mm 4 mps 691 mmHg 91%
    07:00 +22°C° 0 mm 5 mps 692 mmHg 88%
    08:00 +23°C° 0 mm 6 mps 693 mmHg 85%
    09:00 +24°C° 0.1 mm 6 mps 693 mmHg 81%
    10:00 +26°C° 0.1 mm 6 mps 693 mmHg 77%
    11:00 +27°C° 0.1 mm 6 mps 693 mmHg 72%
    12:00 +27°C° 0.8 mm 6 mps 692 mmHg 71%
    13:00 +28°C° 0.8 mm 5 mps 692 mmHg 69%
    14:00 +28°C° 0.8 mm 5 mps 691 mmHg 67%
    15:00 +27°C° 1.4 mm 5 mps 691 mmHg 71%
    16:00 +26°C° 1.4 mm 4 mps 691 mmHg 75%
    17:00 +25°C° 1.4 mm 4 mps 691 mmHg 79%
    18:00 +25°C° 0.7 mm 4 mps 691 mmHg 82%
    19:00 +24°C° 0.7 mm 3 mps 692 mmHg 84%
    20:00 +22°C° 0.7 mm 3 mps 693 mmHg 87%
    21:00 +22°C° 0.1 mm 3 mps 693 mmHg 89%
    22:00 +22°C° 0.1 mm 3 mps 693 mmHg 90%
    23:00 +21°C° 0.1 mm 3 mps 693 mmHg 92%

    24 November, Saturday

    Time Temperature Precipitation Wind Pressure Humidity
    00:00 +21°C° 0 mm 3 mps 692 mmHg 93%
    01:00 +21°C° 0 mm 2 mps 692 mmHg 94%
    02:00 +20°C° 0 mm 2 mps 691 mmHg 95%
    03:00 +20°C° 0 mm 2 mps 691 mmHg 95%
    04:00 +20°C° 0 mm 2 mps 691 mmHg 96%
    05:00 +20°C° 0 mm 2 mps 691 mmHg 96%
    06:00 +20°C° 0 mm 2 mps 692 mmHg 91%
    07:00 +21°C° 0 mm 2 mps 693 mmHg 87%
    08:00 +22°C° 0 mm 3 mps 694 mmHg 82%
    09:00 +25°C° 0 mm 3 mps 694 mmHg 73%
    10:00 +26°C° 0 mm 3 mps 694 mmHg 64%
    11:00 +28°C° 0 mm 3 mps 694 mmHg 55%
    12:00 +29°C° 0 mm 3 mps 693 mmHg 52%
    13:00 +29°C° 0 mm 3 mps 692 mmHg 50%
    14:00 +30°C° 0 mm 3 mps 692 mmHg 47%
    15:00 +29°C° 0 mm 3 mps 692 mmHg 51%
    16:00 +28°C° 0 mm 3 mps 692 mmHg 55%
    17:00 +27°C° 0 mm 2 mps 691 mmHg 58%
    18:00 +26°C° 0 mm 2 mps 692 mmHg 61%
    19:00 +25°C° 0 mm 2 mps 693 mmHg 64%
    20:00 +24°C° 0 mm 2 mps 693 mmHg 66%
    21:00 +24°C° 0 mm 2 mps 693 mmHg 70%
    22:00 +23°C° 0 mm 2 mps 693 mmHg 73%
    23:00 +23°C° 0 mm 2 mps 693 mmHg 76%

    25 November, Sunday

    Time Temperature Precipitation Wind Pressure Humidity
    00:00 +21°C° 0 mm 2 mps 692 mmHg 79%
    01:00 +21°C° 0 mm 2 mps 692 mmHg 81%
    02:00 +21°C° 0 mm 1 mps 691 mmHg 84%
    03:00 +21°C° 0 mm 1 mps 691 mmHg 85%
    04:00 +21°C° 0 mm 1 mps 691 mmHg 87%
    05:00 +21°C° 0 mm 1 mps 691 mmHg 88%
    06:00 +22°C° 0 mm 1 mps 692 mmHg 84%
    07:00 +23°C° 0 mm 1 mps 693 mmHg 80%
    08:00 +24°C° 0 mm 1 mps 693 mmHg 76%
    09:00 +26°C° 0 mm 2 mps 693 mmHg 70%
    10:00 +27°C° 0 mm 3 mps 693 mmHg 64%
    11:00 +29°C° 0 mm 3 mps 693 mmHg 58%
    12:00 +29°C° 0.1 mm 3 mps 692 mmHg 57%
    13:00 +29°C° 0.1 mm 3 mps 691 mmHg 56%
    14:00 +29°C° 0.1 mm 3 mps 691 mmHg 56%
    15:00 +28°C° 0.1 mm 3 mps 691 mmHg 59%
    16:00 +28°C° 0.1 mm 3 mps 691 mmHg 62%
    17:00 +27°C° 0.1 mm 3 mps 690 mmHg 66%
    18:00 +26°C° 0 mm 2 mps 691 mmHg 67%
    19:00 +25°C° 0 mm 2 mps 692 mmHg 68%
    20:00 +24°C° 0 mm 2 mps 692 mmHg 69%
    21:00 +24°C° 0 mm 1 mps 692 mmHg 69%
    22:00 +23°C° 0 mm 1 mps 691 mmHg 70%
    23:00 +23°C° 0 mm 1 mps 691 mmHg 70%

    26 November, Monday

    Time Temperature Precipitation Wind Pressure Humidity
    00:00 +22°C° 0 mm 1 mps 691 mmHg 72%
    01:00 +22°C° 0 mm 1 mps 690 mmHg 74%
    02:00 +21°C° 0 mm 1 mps 690 mmHg 75%
    03:00 +21°C° 0 mm 1 mps 690 mmHg 77%
    04:00 +21°C° 0 mm 1 mps 690 mmHg 79%
    05:00 +20°C° 0 mm 1 mps 690 mmHg 81%
    06:00 +21°C° 0 mm 1 mps 691 mmHg 77%
    07:00 +23°C° 0 mm 2 mps 691 mmHg 74%
    08:00 +24°C° 0 mm 2 mps 692 mmHg 70%
    09:00 +25°C° 0 mm 2 mps 692 mmHg 62%
    10:00 +27°C° 0 mm 3 mps 692 mmHg 53%
    11:00 +28°C° 0 mm 3 mps 692 mmHg 44%
    12:00 +29°C° 0 mm 3 mps 691 mmHg 42%
    13:00 +29°C° 0 mm 4 mps 691 mmHg 40%
    14:00 +30°C° 0 mm 4 mps 690 mmHg 37%
    15:00 +29°C° 0 mm 3 mps 690 mmHg 41%
    16:00 +27°C° 0 mm 3 mps 690 mmHg 45%
    17:00 +26°C° 0 mm 3 mps 690 mmHg 49%
    18:00 +25°C° 0 mm 3 mps 690 mmHg 51%
    19:00 +24°C° 0 mm 3 mps 690 mmHg 52%
    20:00 +22°C° 0 mm 3 mps 691 mmHg 53%
    21:00 +21°C° 0 mm 3 mps 691 mmHg 56%
    22:00 +20°C° 0 mm 2 mps 690 mmHg 58%
    23:00 +20°C° 0 mm 2 mps 690 mmHg 60%
    Show more